Location: Franzen
(48.6167°N, 15.3833°E)
Time: 10:38:52
(UTC+00:00)

Cosmos 1844 - Pass Details

Date: 22 April 2021
Orbit: 824 x 866 km, 70.9° (Epoch: 16 May)

Event Time Altitude Azimuth Distance (km) Brightness Sun altitude
Exits shadow 23:41:46 52° 282° (WNW) 1,058 4.1 -28.0°
Maximum altitude 23:42:19 54° 304° (NW) 1,034 4.1 -28.0°
Drops below altitude 10° 23:47:56 10° 22° (NNE) 2,489 7.1 -27.8°
Sets 23:50:27 0° 27° (NNE) 3,421 8.1 -27.7°
